Preview of NWS' New Version of Forecast
This preview is not operational and should not be used for support decisions.

Regional Weather Roundup (RWR)

Issued by National Weather Service (NWS)

                            
000
ASUS43 KMKX 190310
RWRWI 

WISCONSIN REGIONAL WEATHER ROUNDUP
NATIONAL WEATHER SERVICE MILWAUKEE/SULLIVAN WI
1000 PM CDT THU APR 18 2019

NOTE: "FAIR" INDICATES FEW OR NO CLOUDS BELOW 12,000 FEET WITH NO
SIGNIFICANT WEATHER AND/OR OBSTRUCTIONS TO VISIBILITY.

WIZ001-002-006>008-014>016-023>028-190400-
NORTHWEST WISCONSIN
  
CITY           SKY/WX    TMP DP  RH WIND       PRES   REMARKS
SUPERIOR ARPT  FAIR      38  35  89 W5        29.98R WCI  35          
ASHLAND        MOCLDY    35  34  96 SW5       29.98R WCI  31          
HAYWARD        FAIR      33  32  96 CALM      29.97R                  
SIREN          FAIR      38  34  88 CALM      29.99R                  
CUMBERLAND     MOCLDY    37  34  87 N5        29.97S WCI  34          
RICE LAKE      CLOUDY    40  33  74 NW3       29.98R                  
CHETEK         FAIR      37  37  98 CALM      29.96S                  
LADYSMITH      FAIR      40  37  89 N7        29.97S WCI  35          
EAU CLAIRE     CLOUDY    44  36  73 N5        29.94R                  
MENOMONIE      FAIR      38  33  80 NW5       29.97R WCI  35          
NEW RICHMOND   FAIR      40  34  77 CALM      29.98S                  
OSCEOLA        MOCLDY    40  36  86 CALM      30.01S                  
$$
 
WIZ003>005-009-010-017-018-190400-
NORTH CENTRAL WISCONSIN
  
CITY           SKY/WX    TMP DP  RH WIND       PRES   REMARKS
MANITOWISH WTR MOCLDY    36  36 100 N3        29.93S                  
ARBOR VITAE    MOCLDY    39  37  92 N3        29.92R                  
WOODRUFF       MOCLDY    39  37  92 N3        29.92R                  
RHINELANDER    CLOUDY    40  34  79 N7        29.91R                  
EAGLE RIVER    CLOUDY    38  36  92 N8        29.90R WCI  32          
LAND O LAKES   FAIR      37  35  91 N7        29.93R WCI  32          
PHILLIPS       MOCLDY    36  36 100 N3        29.93R                  
TOMAHAWK       CLOUDY    36  34  92 NW5       29.92S WCI  32          
MEDFORD        FAIR      37  34  90 N8        29.91S WCI  30          
MERRILL        CLOUDY    38  37  94 N9        29.91S WCI  32          
$$
 
WIZ029-030-035-036-043>047-190400-
CENTRAL WISCONSIN
  
CITY           SKY/WX    TMP DP  RH WIND       PRES   REMARKS
WAUSAU         FAIR      39  35  86 NW7       29.88R WCI  34          
MOSINEE        FAIR      37  36  93 N9        29.90R WCI  31          
MARSHFIELD     FAIR      41  37  86 N13G20    29.89S                  
STEVENS POINT  FAIR      37  35  92 N5        29.89S WCI  34          
WAUPACA        FAIR      43  37  78 NW9       29.87S                  
WAUTOMA        MOCLDY    41  36  82 N10       29.87S                  
WISC RAPIDS    FAIR      40  33  76 N8        29.89S WCI  34          
CAMP DOUGLAS   CLOUDY    41  41 100 NW7       29.89S                  
$$
 
WIZ011>013-019>022-031-037>040-048>050-190400-
NORTHEAST WISCONSIN
  
CITY           SKY/WX    TMP DP  RH WIND       PRES   REMARKS
ANTIGO         MOCLDY    37  36  94 N14       29.88R WCI  28          
SHAWANO        MOCLDY    42  37  83 NW7       29.86R                  
OCONTO         CLOUDY    41  37  83 N9G16     29.84R                  
STURGEON BAY   CLOUDY    40  37  89 N16       29.82R WCI  31          
GREEN BAY      CLOUDY    44  37  76 N12       29.83S                  
MANITOWOC      CLOUDY    42  38  85 N16G22    29.81S                  
APPLETON       CLOUDY    39  34  81 N13       29.82S WCI  32          
CLINTONVILLE   MOCLDY    42  36  80 N7        29.86S                  
OSHKOSH        CLOUDY    42  37  82 N14G23    29.83S                  
$$
 
WIZ032>034-041-042-053>061-190400-
SOUTHWEST WISCONSIN
  
CITY           SKY/WX    TMP DP  RH WIND       PRES   REMARKS
LA CROSSE      MOCLDY    44  36  73 N6        29.92R                  
SPARTA         FAIR      39  36  88 CALM      29.92F                  
VIROQUA        CLOUDY    42  39  92 N8        29.90R                  
BOSCOBEL       CLOUDY    46  35  65 N9        29.89S                  
PRAIRIE DU CHI FAIR      46  34  63 N7G17     29.90R                  
PLATTEVILLE    CLOUDY    44  38  79 N20       29.86R                  
$$

WIZ056-057-062-063-064-067-068-190400-
SOUTH CENTRAL WISCONSIN
  
CITY           SKY/WX    TMP DP  RH WIND       PRES   REMARKS
REEDSBURG      CLOUDY    42  36  78 N17       29.87S                  
BARABOO/DELLS  CLOUDY    42  35  78 N9G16     29.87S                  
LONE ROCK      CLOUDY    45  35  68 N15G26    29.88R                  
MINERAL POINT  CLOUDY    45  37  76 N12       29.85S                  
MADISON        CLOUDY    43  36  76 N12       29.84R                  
MIDDLETON      CLOUDY    44  37  78 N13       29.85R                  
WATERTOWN      CLOUDY    42  39  91 N10G16    29.82R                  
MONROE         CLOUDY    43  35  72 MISG      29.82R                  
JANESVILLE     CLOUDY    45  36  70 N9G18     29.82R                  
$$
 
WIZ051-052-058>065-066-070>072-190400-
SOUTHEAST WISCONSIN
  
CITY           SKY/WX    TMP DP  RH WIND       PRES   REMARKS
MILWAUKEE      CLOUDY    45  37  73 N9G21     29.79S                  
WAUKESHA       CLOUDY    39  36  87 N9        29.82R WCI  33          
MILWAUKEE/TIMM CLOUDY    41  34  75 N14       29.81S                  
RACINE         CLOUDY    43  38  82 N10       29.81S                  
KENOSHA        CLOUDY    45  39  79 N12       29.79F                  
FOND DU LAC    CLOUDY    42  37  82 N13       29.83S                  
SHEBOYGAN      CLOUDY    42  37  82 N14       29.80F                  
WEST BEND      CLOUDY    41  36  81 N16G22    29.80F                  
JUNEAU         CLOUDY    41  37  86 N8        29.83S                  
$$

LSZ147-162-190400-
LAKE SUPERIOR
  
STATION/POSITION TIME  TEMP    WIND        PRES    WAVE
                       AIR SEA DIR/SP/G            HT/PER
                 (UTC) (F)     (DEG/KT/KT) (MB)    (FT/S)
$$
 
LMZ867-665-643>646-190400-
LAKE MICHIGAN
  
STATION/POSITION TIME  TEMP    WIND        PRES    WAVE
                       AIR SEA DIR/SP/G            HT/PER
                 (UTC) (F)     (DEG/KT/KT) (MB)    (FT/S)
NORTHPORT PIER   0240   36     320/  7/  8 1009.5R
KEWAUNEE LAKESHO 0248   42     340/ 12/ 18 1008.5F
SHEBOYGAN LAKESH 0300   43     340/ 17/ 20 1009.0F
MILWAUKEE LAKESH 0250   44                   N/A
KENOSHA   LAKESH 0300   44     360/ 13/ 16 1008.8
$$

TC  - TEMPERATURE IN CELSIUS
VSB - VISIBILITY IN STATUTE MILES
WCI - WIND CHILL INDEX
HX  - HEAT INDEX